Location: Morlupo
(42.1333°N, 12.5000°E)
Time: 15:41:11
(UTC+00:00)

H-2A R/B - Pass Details

Date: 18 September 2020
Orbit: 734 x 836 km, 98.2° (Epoch: 25 October)

Event Time Altitude Azimuth Distance (km) Brightness Sun altitude
Rises 19:12:13 0° 196° (SSW) 3,153 5.1 -22.1°
Reaches altitude 10° 19:14:48 10° 209° (SSW) 2,242 4.5 -22.6°
Maximum altitude 19:18:55 26° 266° (W) 1,436 4.0 -23.3°
Drops below altitude 10° 19:23:07 10° 323° (NW) 2,293 5.3 -24.0°
Sets 19:25:48 0° 335° (NNW) 3,240 6.0 -24.4°
